Sioux City, IA

9:01 AM CST on December 18, 2017 (GMT -0600)
Sioux Gateway

Weather History for KSUX - June, 2013

Change the Weather History Date:

Saturday, June 1, 2013

  Actual Average Record
Temperature  
Mean Temperature 55 °F 66 °F  
Max Temperature 60 °F 78 °F 94 °F (1934)
Min Temperature 50 °F 54 °F 40 °F (1982)
Degree Days  
Heating Degree Days 10 2  
Month to date heating degree days 10 2  
Since 1 June heating degree days 10 2  
Since 1 July heating degree days 7062 6836  
Cooling Degree Days 0 3  
Month to date cooling degree days 0 3  
Year to date cooling degree days 56 67  
Since 1 June cooling degree days 0 3  
Growing Degree Days 4 (Base 50)    
Moisture  
Dew Point 52 °F    
Average Humidity 79    
Maximum Humidity 93    
Minimum Humidity 64    
Precipitation  
Precipitation 0.13 in 0.13 in 2.59 in (1963)
Month to date precipitation 0.13 0.13  
Year to date precipitation 13.46 10.11  
Snow  
Snow 0.00 in 0.00 in 0.00 in ()
Month to date snowfall 0.0 0.0  
Since 1 June snowfall 0.0 0.0  
Since 1 July snowfall 45.1 34.8  
Snow Depth 0.00 in    
Sea Level Pressure  
Sea Level Pressure 29.78 in    
Wind  
Wind Speed 18 mph (NW)    
Max Wind Speed 33 mph    
Max Gust Speed 40 mph    
Visibility 8 miles    
Events Rain    
T = Trace of Precipitation, MM = Missing Value Source: NWS Daily Summary

Daily Weather History Graph

Daily Weather History Graph

Search for Another Location

Airport or City:

Trip Planner

Search our weather history database for the weather conditions in past years. The results will help you decide how hot, cold, wet, or windy it might be!

Date:

Astronomy

Jun. 01, 2013 Rise Set
Actual Time 5:51 AM CDT 8:56 PM CDT
Civil Twilight 5:17 AM CDT 9:30 PM CDT
Nautical Twilight 4:33 AM CDT 10:13 PM CDT
Astronomical Twilight 3:42 AM CDT 11:05 PM CDT
Moon 1:55 AM CDT (6/1) 2:19 PM CDT (6/1)
Length of Visible Light 16h 13m
Length of Day
15h 05m
Last Quarter, 40% of the Moon is Illuminated
Jun 1
Last Quarter
Jun 8
New
Jun 16
First Quarter
Jun 23
Full
Jun 29
Last Quarter

Hourly Weather History & Observations

Time (CDT) Temp. Dew Point Humidity Pressure Visibility Wind Dir Wind Speed Gust Speed Precip Events Conditions
12:52 AM 60.1 °F 48.9 °F 67% 29.63 in 10.0 mi WSW 15.0 mph 20.7 mph N/A   Overcast
1:15 AM 60.8 °F 48.2 °F 63% 29.64 in 10.0 mi WSW 13.8 mph 18.4 mph N/A   Overcast
1:52 AM 59.0 °F 51.1 °F 75% 29.63 in 10.0 mi WSW 16.1 mph - N/A   Overcast
2:52 AM 57.0 °F 52.0 °F 83% 29.61 in 9.0 mi West 12.7 mph - 0.00 in Rain Light Rain
3:52 AM 57.0 °F 53.1 °F 87% 29.60 in 10.0 mi West 10.4 mph - 0.08 in Rain Light Rain
4:52 AM 57.0 °F 53.1 °F 87% 29.60 in 10.0 mi West 11.5 mph - 0.00 in   Overcast
5:52 AM 57.9 °F 53.1 °F 84% 29.61 in 10.0 mi West 11.5 mph - N/A   Overcast
6:13 AM 57.2 °F 53.6 °F 88% 29.63 in 10.0 mi West 12.7 mph - N/A   Overcast
6:52 AM 57.0 °F 55.0 °F 93% 29.63 in 3.0 mi WNW 9.2 mph - 0.00 in Rain Light Rain
7:09 AM 57.2 °F 55.4 °F 94% 29.65 in 10.0 mi NW 13.8 mph - 0.00 in   Overcast
7:50 AM 57.2 °F 53.6 °F 88% 29.67 in 10.0 mi NW 17.3 mph 25.3 mph 0.00 in   Overcast
7:52 AM 57.0 °F 53.1 °F 87% 29.66 in 10.0 mi NW 15.0 mph 25.3 mph 0.00 in   Overcast
8:10 AM 57.2 °F 53.6 °F 88% 29.67 in 10.0 mi WNW 19.6 mph 27.6 mph N/A   Overcast
8:44 AM 55.4 °F 53.6 °F 94% 29.69 in 9.0 mi WNW 20.7 mph 32.2 mph N/A   Overcast
8:47 AM 55.4 °F 53.6 °F 94% 29.68 in 8.0 mi WNW 13.8 mph 32.2 mph N/A   Overcast
8:52 AM 55.9 °F 54.0 °F 93% 29.68 in 5.0 mi WNW 16.1 mph 25.3 mph 0.00 in Rain Light Rain
8:59 AM 55.4 °F 53.6 °F 94% 29.69 in 4.0 mi WNW 17.3 mph - 0.00 in Rain Light Rain
9:03 AM 55.4 °F 53.6 °F 94% 29.69 in 3.0 mi WNW 18.4 mph - 0.00 in Rain Light Rain
9:06 AM 55.4 °F 53.6 °F 94% 29.69 in 2.5 mi WNW 16.1 mph - 0.00 in Rain Light Rain
9:13 AM 55.4 °F 53.6 °F 94% 29.69 in 1.8 mi WNW 17.3 mph 23.0 mph 0.01 in Rain Light Rain
9:20 AM 55.4 °F 53.6 °F 94% 29.70 in 2.5 mi WNW 18.4 mph 24.2 mph 0.01 in Rain Light Rain
9:30 AM 55.4 °F 53.6 °F 94% 29.70 in 3.0 mi WNW 20.7 mph 24.2 mph 0.01 in Rain Light Rain
9:52 AM 55.9 °F 54.0 °F 93% 29.70 in 7.0 mi NW 18.4 mph 29.9 mph 0.01 in   Overcast
10:52 AM 55.0 °F 54.0 °F 96% 29.73 in 3.0 mi NW 18.4 mph 28.8 mph 0.00 in Rain Light Rain
11:00 AM 55.4 °F 53.6 °F 94% 29.73 in 2.5 mi NW 19.6 mph 29.9 mph 0.00 in Rain Light Rain
11:19 AM 55.4 °F 53.6 °F 94% 29.74 in 3.0 mi NW 18.4 mph 26.5 mph 0.00 in Rain Light Rain
11:28 AM 55.4 °F 53.6 °F 94% 29.75 in 7.0 mi NW 23.0 mph 33.4 mph 0.00 in Rain Light Rain
11:52 AM 55.0 °F 53.1 °F 93% 29.77 in 3.0 mi NW 25.3 mph 33.4 mph 0.04 in Rain Light Rain
12:09 PM 55.4 °F 53.6 °F 94% 29.78 in 2.5 mi NW 23.0 mph 28.8 mph 0.00 in Rain Light Rain
12:13 PM 55.4 °F 53.6 °F 94% 29.78 in 3.0 mi NW 23.0 mph 31.1 mph 0.00 in Rain Light Rain
12:52 PM 55.0 °F 52.0 °F 89% 29.81 in 10.0 mi NW 26.5 mph 33.4 mph 0.00 in Rain Light Rain
1:52 PM 57.0 °F 52.0 °F 83% 29.83 in 10.0 mi NNW 28.8 mph 35.7 mph 0.00 in   Overcast
2:52 PM 55.9 °F 51.1 °F 84% 29.85 in 10.0 mi NW 24.2 mph 34.5 mph N/A   Overcast
3:44 PM 57.2 °F 50.0 °F 77% 29.87 in 10.0 mi NNW 27.6 mph 36.8 mph N/A   Overcast
3:52 PM 57.0 °F 50.0 °F 77% 29.88 in 10.0 mi NNW 28.8 mph 36.8 mph N/A   Overcast
4:35 PM 55.4 °F 48.2 °F 77% 29.90 in 10.0 mi NW 21.9 mph 35.7 mph N/A   Overcast
4:52 PM 55.9 °F 48.9 °F 77% 29.90 in 10.0 mi NNW 27.6 mph 35.7 mph N/A   Overcast
5:12 PM 55.4 °F 50.0 °F 82% 29.90 in 10.0 mi NNW 23.0 mph 32.2 mph N/A   Overcast
5:38 PM 55.4 °F 50.0 °F 82% 29.91 in 10.0 mi NNW 21.9 mph 29.9 mph N/A   Overcast
5:52 PM 55.0 °F 48.9 °F 80% 29.93 in 10.0 mi NW 19.6 mph 34.5 mph N/A   Overcast
6:52 PM 55.0 °F 48.9 °F 80% 29.94 in 10.0 mi NW 19.6 mph 31.1 mph N/A   Overcast
7:52 PM 54.0 °F 48.0 °F 80% 29.96 in 10.0 mi NNW 17.3 mph 23.0 mph N/A   Overcast
8:52 PM 54.0 °F 48.0 °F 80% 29.99 in 10.0 mi NNW 16.1 mph 21.9 mph N/A   Overcast
9:52 PM 53.1 °F 48.9 °F 86% 30.02 in 10.0 mi NW 13.8 mph 19.6 mph N/A   Overcast
10:12 PM 53.6 °F 48.2 °F 82% 30.03 in 10.0 mi NNW 13.8 mph - N/A   Overcast
10:52 PM 53.1 °F 48.9 °F 86% 30.04 in 9.0 mi NNW 13.8 mph - N/A   Overcast
11:10 PM 51.8 °F 48.2 °F 88% 30.04 in 10.0 mi North 16.1 mph - 0.00 in   Overcast
11:29 PM 51.8 °F 48.2 °F 88% 30.04 in 10.0 mi NNW 17.3 mph 23.0 mph 0.00 in   Overcast
11:52 PM 51.1 °F 46.9 °F 86% 30.05 in 10.0 mi NNW 15.0 mph - 0.00 in   Mostly Cloudy